Regional Weather Roundup
Issued by NWS

Home | Current Version | Previous Version | Graphics & Text | Print | Product List | Glossary On
Versions: 1 2 3 4 5 6 7 8 9 10 11 12 13 14 15 16 17 18 19 20 21 22 23 24 25 26 27 28 29 30 31 32 33 34 35 36 37 38 39 40 41 42 43 44 45 46 47 48 49 50
155
ASUS43 KBIS 261810
RWRND
NORTH DAKOTA REGIONAL WEATHER ROUNDUP
NATIONAL WEATHER SERVICE EASTERN NORTH DAKOTA/GRAND FORKS ND
100 PM CDT THU APR 26 2018

  NOTE: "FAIR" INDICATES FEW OR NO CLOUDS BELOW 12,000 FEET WITH NO
  SIGNIFICANT WEATHER AND/OR OBSTRUCTIONS TO VISIBILITY.

NDZ001>003-009>011-017-261900-
...NORTHWEST NORTH DAKOTA...

CITY           SKY/WX    TMP DP  RH WIND       PRES   REMARKS
WILLISTON      FAIR      64  28  25 W20       30.13F
6HR MIN TEMP:  27; 6HR MAX TEMP:  64;

MINOT          FAIR      62  23  22 NW18G26   30.08F
MINOT AFB      FAIR      61  24  24 NW22G30   30.06F
6HR MIN TEMP:  31; 6HR MAX TEMP:  62;

$$

NDZ018>021-031>035-040>046-261900-
...SOUTHWEST NORTH DAKOTA...

CITY           SKY/WX    TMP DP  RH WIND       PRES   REMARKS
BISMARCK       FAIR      62  24  23 NW16G29   30.14F
DICKINSON      FAIR      60  25  26 NW12G24   30.15F
GARRISON         N/A     59  26  28 W17G26    30.11F
HETTINGER      FAIR      59  24  26 NW17G24   30.20S
$$

NDZ004>008-012>016-024-026-027-054-261900-
...NORTHEAST NORTH DAKOTA...

CITY           SKY/WX    TMP DP  RH WIND       PRES   REMARKS
GRAND FORKS    FAIR      53  30  41 N18G30    30.05F
GRAND FORKS AF FAIR      55  27  33 NW17      30.05F
DEVILS LAKE    FAIR      54  29  38 W15       30.08F
$$

NDZ022-023-025-028>030-036>039-047>053-261900-
...SOUTHEAST NORTH DAKOTA...

CITY           SKY/WX    TMP DP  RH WIND       PRES   REMARKS
JAMESTOWN      FAIR      58  28  32 N20       30.08F
FARGO          FAIR      54  29  38 N25G35    30.05S
WAHPETON       FAIR      54  25  32 N29G40    30.04R
$$




USA.gov is the U.S. government's official web portal to all federal, state and local government web resources and services.